[[{"header":{"parameterUnit":"m.s-1","parameterCategory":1,"la1":30.2991,"la2":30.254,"lo1":-89.0895,"lo2":-89.0444,"dy":0.0017,"dx":0.0017,"nx":28,"ny":28,"refTime":"2023-10-01T21:00:00:Z","depth":0,"parameterNumber":2,"parameterNumberName":"U-component_of_WINDS"},"data":[0,0,0,0,0,0,0,0,0,0,0,0,0,0,0,0,0,0,0,0,0,0,0,0,0,0,0,0,0,0,0,0,0,0,0,0,0,0,0,0,0,0,0,0,0,0,0,0,0,0,0,0,0,0,0,0,0,0,-5.3707,-5.3707,0,-5.3772,-5.3773,-5.3774,-5.3579,-5.3573,-5.3568,-5.3562,-5.3633,-5.364,-5.3647,0,0,0,0,0,0,0,0,0,0,0,0,0,-5.3415,-5.3421,-5.3707,-5.3708,-5.3708,-5.3772,-5.3773,-5.3774,-5.3581,-5.3573,-5.3566,-5.3559,-5.363,-5.3639,-5.3648,0,0,0,0,0,0,0,0,0,0,0,0,0,-5.3518,-5.3423,-5.3707,-5.3619,-5.3612,-5.3772,-5.3773,-5.3774,-5.3582,-5.3573,-5.3564,-5.3556,-5.3627,-5.3638,-5.3649,-5.3898,0,0,-5.3684,-5.3688,0,0,0,0,0,0,0,0,-5.3512,-5.3528,-5.3631,-5.3626,-5.3618,-5.3658,-5.3696,-5.3816,-5.3584,-5.3594,-5.3562,-5.3551,-5.3649,-5.3658,-5.369,-5.3901,-5.3904,-5.3685,-5.3691,-5.3696,-5.3699,0,0,0,0,0,0,0,-5.3505,-5.3525,-5.3733,-5.3633,-5.3625,-5.3577,-5.3582,-5.3718,-5.3671,-5.3592,-5.3578,-5.3588,-5.3643,-5.368,-5.369,-5.3905,-5.3684,-5.3694,-5.3701,-5.3705,-5.4322,-5.4332,0,0,0,0,0,0,-5.3509,-5.352,-5.3731,-5.3735,-5.3542,-5.359,-5.3595,-5.3655,-5.3669,-5.3662,-5.3596,-5.3579,-5.3665,-5.3677,-5.3692,-5.3983,-5.3696,-5.3707,-5.3713,-5.4313,-5.4325,-5.4335,0,0,0,0,0,0,-5.3503,-5.353,-5.3728,-5.3624,-5.3645,-5.3604,-5.3673,-5.3661,-5.3696,-5.3672,-5.3662,-5.3642,-5.3658,-5.3676,-5.3847,-5.3983,-5.3712,-5.3722,-5.4301,-5.4316,-5.433,-5.4568,0,0,0,0,0,0,-5.3496,-5.3529,-5.3623,-5.3627,-5.3651,-5.3883,-5.3681,-5.3668,-5.3716,-5.3694,-5.3712,-5.3706,-5.3653,-5.3832,-5.3859,-5.3993,-5.3731,-5.4289,-5.4308,-5.4325,-5.4548,-5.4589,-5.4624,0,0,0,0,0,-5.3486,-5.3688,-5.3628,-5.3655,-5.3768,-5.3891,-5.3905,-5.3838,-5.3728,-5.3822,-5.3805,-5.3706,-5.3964,-5.3851,-5.388,-5.402,-5.428,-5.4303,-5.4324,-5.4531,-5.4581,-5.4623,0,0,0,0,0,0,-5.3702,-5.3687,-5.3621,-5.383,-5.3863,-5.3858,-5.3975,-5.3893,-5.396,-5.3937,-5.3852,-5.3858,-5.4045,-5.4049,-5.3924,-5.426,-5.4103,-5.4132,-5.4251,-5.4298,-5.4336,-5.4331,-5.374,0,0,0,0,0,-5.3774,-5.3875,-5.3856,-5.4043,-5.4063,-5.4017,-5.4068,-5.4013,-5.4044,-5.4058,-5.4054,-5.4089,-5.4177,-5.4238,-5.4318,-5.4547,-5.4548,-5.4658,-5.4696,-5.4727,-5.4753,-5.4874,-5.4922,-5.4406,-5.4406,-5.4406,0,0,-5.3924,-5.3928,-5.3997,-5.4086,-5.4105,-5.4212,-5.403,-5.415,-5.4229,-5.4076,-5.4237,-5.4236,-5.4269,-5.4471,-5.456,-5.448,-5.4895,-5.4755,-5.478,-5.4789,-5.4902,-5.495,-5.4994,-5.4421,-5.4419,-5.4416,0,0,-5.4251,-5.4265,-5.4421,-5.4444,-5.4474,-5.4442,-5.448,-5.4487,-5.4479,-5.4639,-5.4527,-5.4619,-5.4774,-5.4802,-5.4836,-5.5173,-5.5084,-5.5202,-5.5401,-5.552,-5.5561,-5.5596,-5.5716,-5.576,-5.5227,-5.5228,-5.5228,0,-5.4434,-5.459,-5.4512,-5.464,-5.4683,-5.4548,-5.4705,-5.4731,-5.4788,-5.4821,-5.473,-5.492,-5.4934,-5.5139,-5.5221,-5.5254,-5.5294,-5.52,-5.5561,-5.5596,-5.5628,-5.5741,-5.5787,-5.5242,-5.524,-5.5239,-5.5238,0,-5.4813,-5.4922,-5.5045,-5.5101,-5.5157,-5.53,-5.5244,-5.531,-5.5251,-5.5228,-5.5393,-5.5403,-5.5483,-5.5527,-5.5471,-5.5725,-5.5675,-5.5575,-5.5415,-5.5692,-5.5798,-5.5841,-5.5262,-5.5257,-5.5253,-5.525,0,0,-5.528,-5.529,-5.5336,-5.5359,-5.5383,-5.5466,-5.5602,-5.5678,-5.5737,-5.578,-5.5892,-5.6025,-5.5932,-5.5971,-5.5917,-5.6021,-5.6287,-5.5907,-5.5907,-5.5978,-5.6568,-5.6644,-5.6696,-5.6227,-5.6235,-5.6242,-5.6565,0,-5.5602,-5.5834,-5.5768,-5.6001,-5.6101,-5.5974,-5.6092,-5.612,-5.6102,-5.6185,-5.6165,-5.6261,-5.613,-5.6153,-5.625,-5.6234,-5.6405,-5.621,-5.6332,-5.6337,-5.6328,-5.6751,-5.6832,-5.7136,-5.6606,-5.6613,-5.6618,0,-5.601,-5.6067,-5.631,-5.6315,-5.6355,-5.6463,-5.6527,-5.6607,-5.6636,-5.6615,-5.6659,-5.6582,-5.6717,-5.6556,-5.674,-5.6609,-5.6654,-5.6654,-5.6664,-5.6674,-5.6495,-5.6772,-5.7232,-5.7278,-5.6682,-5.6677,-5.6672,0,-5.6326,-5.6464,-5.6627,-5.6651,-5.6661,-5.674,-5.6748,-5.6767,-5.6817,-5.6873,-5.6905,-5.6977,-5.7017,-5.7074,-5.7019,-5.6907,-5.7212,-5.7047,-5.72,-5.7202,-5.727,-5.7267,-5.7745,-5.73,-5.7299,-5.7298,-5.7297,0,-5.6694,-5.6847,-5.6769,-5.687,-5.7038,-5.696,-5.7129,-5.7122,-5.7141,-5.7238,-5.7132,-5.7226,-5.7147,-5.7234,-5.7192,-5.7351,-5.737,-5.7357,-5.7345,-5.7367,-5.7369,-5.7397,-5.7374,-5.731,-5.7308,-5.7305,-5.7303,0,-5.7076,-5.703,-5.7199,-5.7194,-5.7196,-5.7321,-5.7317,-5.741,-5.7383,-5.7508,-5.7532,-5.7492,-5.7589,-5.7539,-5.764,-5.7611,-5.7817,-5.7775,-5.7807,-5.7796,-5.7952,-5.7939,-5.8465,-5.853,-5.8044,-5.8048,-5.8052,0,-5.7314,-5.7429,-5.7436,-5.7493,-5.7508,-5.7601,-5.765,-5.7578,-5.7634,-5.7674,-5.7763,-5.785,-5.7916,-5.8076,-5.8057,-5.8133,-5.8092,-5.8272,-5.8103,-5.8122,-5.8095,-5.8089,-5.81,-5.8306,-5.8312,-5.8316,-5.832,0,-5.7741,-5.7711,-5.7786,-5.7855,-5.7916,-5.7966,-5.8008,-5.806,-5.7989,-5.8057,-5.8154,-5.8205,-5.8307,-5.8395,-5.8461,-5.8469,-5.8385,-5.8373,-5.8412,-5.8437,-5.8451,-5.8446,-5.79,-5.8362,-5.8357,-5.8354,-5.8352,-5.8351,-5.8058,-5.8153,-5.8173,-5.826,-5.8283,-5.8324,-5.841,-5.8394,-5.8473,-5.855,-5.8502,-5.8616,-5.864,-5.872,-5.874,-5.8828,-5.8756,-5.8814,-5.8828,-5.8844,-5.8865,-5.8437,-5.884,-5.8838,-5.8837,-5.8836,-5.8835,0,-5.8479,-5.8485,-5.8565,-5.8625,-5.8694,-5.8606,-5.8646,-5.871,-5.8811,-5.884,-5.8907,-5.9018,-5.9103,-5.9089,-5.9166,-5.9239,-5.9202,-5.9262,-5.9256,-5.926,-5.8924,-5.8882,-5.9291,-5.9291,-5.9291,-5.9291,-5.9291,-5.9291,-5.8706,-5.8863,-5.8837,-5.9004,-5.9009,-5.9118,-5.9149,-5.9186,-5.9209,-5.9338,-5.9407,-5.9396,-5.9409,-5.9486,-5.9559,-5.9553,-5.9587,-5.9662,-5.9641,-5.9328,-5.9283,-5.924,-5.9201,-5.9669,-5.967,-5.9969,-5.9972,-5.9974]},{"header":{"parameterUnit":"m.s-1","parameterCategory":1,"la1":30.2991,"la2":30.254,"lo1":-89.0895,"lo2":-89.0444,"dy":0.0017,"dx":0.0017,"nx":28,"ny":28,"refTime":"2023-10-01T21:00:00:Z","depth":0,"parameterNumber":3,"parameterNumberName":"V-component_of_WINDS"},"data":[0,0,0,0,0,0,0,0,0,0,0,0,0,0,0,0,0,0,0,0,0,0,0,0,0,0,0,0,0,0,0,0,0,0,0,0,0,0,0,0,0,0,0,0,0,0,0,0,0,0,0,0,0,0,0,0,0,0,-2.4843,-2.4843,0,-2.484,-2.484,-2.484,-2.4825,-2.4825,-2.4825,-2.4824,-2.482,-2.482,-2.4821,0,0,0,0,0,0,0,0,0,0,0,0,0,-2.4831,-2.4832,-2.4843,-2.4843,-2.4842,-2.484,-2.484,-2.484,-2.4825,-2.4825,-2.4825,-2.4824,-2.482,-2.482,-2.4821,0,0,0,0,0,0,0,0,0,0,0,0,0,-2.4833,-2.4832,-2.4843,-2.4835,-2.4834,-2.484,-2.484,-2.484,-2.4826,-2.4825,-2.4825,-2.4824,-2.482,-2.482,-2.4821,-2.4833,0,0,-2.4822,-2.4822,0,0,0,0,0,0,0,0,-2.4833,-2.4834,-2.4836,-2.4836,-2.4835,-2.4833,-2.4834,-2.4838,-2.4826,-2.4829,-2.4824,-2.4824,-2.4825,-2.4824,-2.4825,-2.4833,-2.4832,-2.4822,-2.4822,-2.4822,-2.4822,0,0,0,0,0,0,0,-2.4833,-2.4834,-2.4841,-2.4836,-2.4835,-2.4831,-2.483,-2.4835,-2.483,-2.4829,-2.4827,-2.4827,-2.4824,-2.4825,-2.4825,-2.4832,-2.4822,-2.4822,-2.4822,-2.4822,-2.4847,-2.4847,0,0,0,0,0,0,-2.4834,-2.4834,-2.4842,-2.4841,-2.4833,-2.4831,-2.4831,-2.4834,-2.483,-2.4828,-2.4828,-2.4827,-2.4825,-2.4825,-2.4825,-2.4837,-2.4822,-2.4822,-2.4822,-2.4846,-2.4847,-2.4847,0,0,0,0,0,0,-2.4834,-2.4835,-2.4842,-2.4837,-2.4838,-2.4832,-2.4835,-2.4834,-2.4835,-2.4829,-2.4828,-2.483,-2.4824,-2.4824,-2.483,-2.4837,-2.4822,-2.4823,-2.4846,-2.4847,-2.4847,-2.4863,0,0,0,0,0,0,-2.4834,-2.4835,-2.4841,-2.4837,-2.4838,-2.4849,-2.4836,-2.4834,-2.4836,-2.4834,-2.4831,-2.4829,-2.4824,-2.483,-2.4831,-2.4837,-2.4823,-2.4845,-2.4846,-2.4847,-2.4862,-2.4864,-2.4866,0,0,0,0,0,-2.4834,-2.4846,-2.4841,-2.4842,-2.4845,-2.4849,-2.4849,-2.4843,-2.4836,-2.4841,-2.4837,-2.483,-2.4836,-2.4831,-2.4831,-2.4838,-2.4845,-2.4846,-2.4847,-2.4861,-2.4863,-2.4866,0,0,0,0,0,0,-2.485,-2.4845,-2.484,-2.4852,-2.4851,-2.4847,-2.4853,-2.4846,-2.4847,-2.4846,-2.4837,-2.4836,-2.4843,-2.4841,-2.4836,-2.4848,-2.4839,-2.484,-2.4849,-2.4852,-2.4854,-2.4854,-2.4823,0,0,0,0,0,-2.4855,-2.4859,-2.4855,-2.4865,-2.4865,-2.4859,-2.486,-2.4855,-2.4854,-2.4853,-2.485,-2.4848,-2.4849,-2.485,-2.4852,-2.4861,-2.4859,-2.4865,-2.4868,-2.4869,-2.487,-2.4873,-2.4875,-2.4851,-2.4851,-2.4851,0,0,-2.4865,-2.4863,-2.4866,-2.4868,-2.4867,-2.487,-2.4859,-2.4863,-2.4865,-2.4854,-2.4859,-2.4856,-2.4854,-2.4861,-2.4864,-2.4859,-2.4876,-2.4871,-2.4872,-2.4872,-2.4874,-2.4876,-2.4878,-2.4852,-2.4851,-2.4851,0,0,-2.4885,-2.4885,-2.4892,-2.4891,-2.4889,-2.4885,-2.4886,-2.4883,-2.488,-2.4885,-2.4876,-2.4878,-2.4881,-2.4879,-2.4878,-2.4894,-2.4887,-2.4895,-2.4906,-2.4908,-2.491,-2.4912,-2.4916,-2.4918,-2.4896,-2.4896,-2.4896,0,-2.4898,-2.4904,-2.4897,-2.4902,-2.4902,-2.4891,-2.4898,-2.4897,-2.4895,-2.4895,-2.489,-2.4892,-2.4889,-2.4895,-2.4898,-2.4899,-2.4899,-2.4895,-2.4911,-2.4912,-2.4914,-2.4918,-2.4919,-2.4897,-2.4897,-2.4897,-2.4897,0,-2.4919,-2.4923,-2.4929,-2.4927,-2.4928,-2.4934,-2.4926,-2.4927,-2.4922,-2.4917,-2.4921,-2.4918,-2.4917,-2.4918,-2.4913,-2.4922,-2.4919,-2.4912,-2.4903,-2.4917,-2.492,-2.4922,-2.4898,-2.4898,-2.4898,-2.4897,0,0,-2.495,-2.4943,-2.4945,-2.4944,-2.494,-2.4942,-2.4946,-2.4945,-2.4946,-2.4944,-2.4946,-2.4948,-2.4941,-2.494,-2.4935,-2.4937,-2.4948,-2.493,-2.493,-2.4932,-2.4956,-2.496,-2.4962,-2.4943,-2.4943,-2.4944,-2.4955,0,-2.4968,-2.4976,-2.4968,-2.4977,-2.4979,-2.4968,-2.4971,-2.4968,-2.4964,-2.4964,-2.4958,-2.4959,-2.4951,-2.495,-2.4952,-2.4946,-2.4952,-2.4945,-2.4944,-2.4944,-2.4944,-2.4964,-2.4969,-2.4981,-2.4957,-2.4957,-2.4957,0,-2.4991,-2.499,-2.4998,-2.4992,-2.4992,-2.4995,-2.4993,-2.4994,-2.4989,-2.4986,-2.4983,-2.4976,-2.4978,-2.4969,-2.4971,-2.4966,-2.4964,-2.4961,-2.4961,-2.4961,-2.4951,-2.4963,-2.4984,-2.4986,-2.496,-2.496,-2.4959,0,-2.5011,-2.5012,-2.5016,-2.5015,-2.5008,-2.501,-2.5007,-2.5002,-2.5001,-2.4999,-2.4998,-2.4995,-2.4994,-2.4991,-2.4983,-2.4978,-2.4985,-2.4976,-2.498,-2.498,-2.4982,-2.4982,-2.5003,-2.4983,-2.4983,-2.4983,-2.4983,0,-2.5031,-2.5036,-2.5025,-2.5028,-2.5032,-2.5023,-2.5028,-2.5023,-2.5019,-2.5019,-2.501,-2.501,-2.4999,-2.4998,-2.4991,-2.4992,-2.4992,-2.4988,-2.4986,-2.4988,-2.4989,-2.4987,-2.4986,-2.4983,-2.4983,-2.4983,-2.4983,0,-2.5054,-2.5047,-2.5051,-2.5043,-2.5041,-2.5045,-2.5038,-2.5039,-2.5033,-2.5034,-2.5034,-2.5024,-2.5022,-2.5013,-2.5009,-2.5005,-2.5008,-2.5004,-2.5009,-2.5008,-2.5012,-2.5012,-2.5032,-2.5034,-2.5014,-2.5014,-2.5014,0,-2.5068,-2.5071,-2.5063,-2.5063,-2.506,-2.506,-2.5059,-2.5049,-2.5048,-2.5042,-2.5044,-2.5041,-2.5038,-2.5035,-2.5027,-2.5024,-2.502,-2.5027,-2.5019,-2.5021,-2.5018,-2.5018,-2.5017,-2.5029,-2.5029,-2.5029,-2.5029,0,-2.5091,-2.5087,-2.5086,-2.5083,-2.5081,-2.5079,-2.5075,-2.5075,-2.5064,-2.5063,-2.5061,-2.5059,-2.5054,-2.5051,-2.5045,-2.5041,-2.5033,-2.5032,-2.5032,-2.5035,-2.5037,-2.5034,-2.5013,-2.5031,-2.5031,-2.5031,-2.5031,-2.5031,-2.5108,-2.511,-2.5105,-2.5103,-2.5099,-2.5096,-2.5096,-2.509,-2.5088,-2.5083,-2.5078,-2.5076,-2.5069,-2.5061,-2.5057,-2.5054,-2.505,-2.5051,-2.5051,-2.5052,-2.5052,-2.5038,-2.5053,-2.5053,-2.5053,-2.5053,-2.5053,0,-2.513,-2.5125,-2.5124,-2.5119,-2.5117,-2.511,-2.5105,-2.5104,-2.5103,-2.5097,-2.5094,-2.509,-2.5087,-2.5078,-2.5073,-2.5073,-2.5069,-2.5071,-2.5071,-2.507,-2.5057,-2.5056,-2.5075,-2.5075,-2.5075,-2.5075,-2.5075,-2.5075,-2.5141,-2.5143,-2.5138,-2.5137,-2.5132,-2.513,-2.5128,-2.5124,-2.5119,-2.5116,-2.5112,-2.5107,-2.5099,-2.5094,-2.5089,-2.5087,-2.5085,-2.5089,-2.5085,-2.5073,-2.5071,-2.5069,-2.5068,-2.5089,-2.5089,-2.5097,-2.5098,-2.5098]}]]